TIME,DELAY(SENSOR),PRES,T(CTD),SAL,OXYGEN,RAWTEMP,T(OPTODE),TCPHASE,FLUOR,BETA(BETA700),BETA(BETA412),BETA(BETA440),CDOM,C(CSC),ED(ED411.90),ED(ED443.80),ED(ED489.40),ED(ED554.70),LU(LU412.20),LU(LU443.80),LU(LU489.40),LU(LU555.00),COMP,TILTX,TILTX(TILTY),CHECK
1349709683,5801,497.6300048828125000,16.8521003723144530,36.3403015136718750,222.0043945312500000,207.7180023193359400,16.8469600677490230,32.6761512756347660,50,104,66,82,62,3956,2147481371,2147768749,2147560877,2147797723,2147314304,2147475748,2147712557,2148241481,3131,7,12,27697
1349709810,5804,486.3500061035156000,16.9571990966796880,36.3592987060546900,222.2223968505859400,204.3103942871093800,16.9505901336669920,32.6172294616699200,49,103,66,82,62,3962,2147482624,2147767076,2147560557,2147798546,2147314011,2147475483,2147713225,2148240822,3357,7,13,25928
1349709937,5801,474.9899902343750000,17.0925006866455080,36.3847999572753900,223.8392944335937500,199.5341949462890600,17.0958499908447270,32.4674682617187500,50,103,65,81,60,3968,2147486354,2147765101,2147559332,2147794633,2147315483,2147476507,2147712256,2148247259,3416,6,13,22997
1349710054,5801,464.5299987792969000,17.2460994720459000,36.4174995422363300,227.8184051513672000,194.7173004150390600,17.2423801422119140,32.1986389160156250,50,103,65,82,60,3969,2147485769,2147767844,2147562230,2147797769,2147313472,2147475693,2147711177,2148249664,3540,7,12,45940
1349710181,5806,453.2000122070312500,17.3462009429931640,36.4361000061035160,229.7297973632812500,191.3898925781250000,17.3435993194580080,32.0575294494628900,50,103,67,81,62,3975,2147483593,2147766729,2147559798,2147794989,2147313883,2147475940,2147708882,2148241078,3329,6,13,22115
1349710298,5804,442.6499938964844000,17.4505004882812500,36.4583015441894500,231.3432006835937500,187.9333038330078000,17.4487705230712900,31.9303092956542970,50,107,66,82,61,3982,2147489024,2147769280,2147560996,2147794194,2147315044,2147480941,2147710564,2148248091,127,7,13,34385
1349710425,5803,431.2099914550781000,17.5680007934570300,36.4823989868164060,234.2210998535156200,183.9122009277343800,17.5711307525634770,31.7347507476806640,49,103,65,83,60,3985,2147485997,2147766619,2147559826,2147793636,2147313618,2147478884,2147710016,2148242029,200,7,13,64033
1349710552,5804,419.9100036621094000,17.6473007202148440,36.4948997497558600,235.3265075683593800,181.4598999023437500,17.6457595825195300,31.6480903625488280,50,103,66,81,61,3988,2147487606,2147765165,2147558582,2147793371,2147311396,2147476178,2147710774,2148242651,651,7,13,21584
1349710669,5805,409.6099853515625000,17.6982002258300780,36.5046005249023440,235.8977966308593800,179.6047058105468800,17.7022304534912100,31.5956592559814450,50,103,65,82,60,3990,2147488896,2147765824,2147559131,2147792969,2147315529,2147479469,2147712237,2148245650,596,6,13,10109
1349710796,5801,398.7200012207031000,17.7950992584228500,36.5218009948730500,236.8209991455078000,176.6632995605468800,17.7917594909667970,31.5115394592285160,50,103,65,82,62,3989,2147486125,2147764772,2147559277,2147792950,2147313042,2147478381,2147709686,2148243867,111,7,13,24170
1349710925,5804,387.7900085449219000,17.8661003112792970,36.5340995788574200,237.8280944824218800,174.3348999023437500,17.8626403808593750,31.4322605133056640,50,104,65,83,60,3993,2147487341,2147765924,2147555968,2147792795,2147312466,2147475702,2147711698,2148241938,24,7,13,15636
1349711064,5806,376.0100097656250000,17.9087009429931640,36.5405998229980500,238.0933990478515600,172.8197937011718800,17.9087696075439450,31.3990306854248050,50,104,66,80,59,3996,2147490368,2147764114,2147560338,2147792841,2147313773,2147477878,2147708854,2148242057,526,7,13,42249
1349711191,5804,365.3299865722656000,17.9689006805419920,36.5503005981445300,238.1649932861328000,170.9869995117187500,17.9645805358886720,31.3712806701660160,49,103,66,82,59,4000,2147487369,2147767734,2147561243,2147791808,2147314596,2147480320,2147706212,2148240749,468,7,12,550
1349711320,5804,354.5599975585937500,17.9699993133544920,36.5387001037597660,233.4813995361328000,170.7976989746093800,17.9703407287597660,31.5933208465576170,50,105,65,82,61,4003,2147490002,2147768036,2147560987,2147791890,2147304978,2147476800,2147710198,2148238802,595,7,12,49931
1349711447,5805,343.8399963378906000,18.0401992797851560,36.5471000671386700,231.2207946777343800,168.5699005126953000,18.0381793975830080,31.6734504699707030,50,103,66,83,60,4009,2147488448,2147766317,2147565110,2147794934,2147310171,2147475154,2147712064,2148242358,557,7,12,58025
1349711588,5806,332.0799865722656000,18.1180000305175780,36.5587997436523440,230.8656005859375000,166.0514068603515600,18.1148796081542970,31.6567401885986330,50,104,66,82,61,4017,2147489892,2147766317,2147565458,2147792045,2147309750,2147478656,2147715044,2148241764,901,7,12,45910
1349711715,5804,321.7999877929687500,18.1704006195068360,36.5676994323730500,231.8464965820312500,164.3802032470703000,18.1657791137695300,31.5862007141113280,49,102,65,82,59,4022,2147485330,2147768128,2147569920,2147792292,2147315373,2147482459,2147716854,2148242587,1364,7,12,37889
1349711856,5804,310.6300048828125000,18.2089004516601560,36.5688018798828100,230.4960937500000000,163.0095062255859400,18.2075405120849600,31.6340904235839840,50,105,65,83,59,4027,2147490102,2147766473,2147575762,2147792576,2147310299,2147481417,2147722166,2148243136,1933,6,13,56772
1349711995,5803,300.0100097656250000,18.3118991851806640,36.5857009887695300,230.9313964843750000,159.5187072753906200,18.3138809204101560,31.5655403137207030,50,103,66,81,60,4023,2147488201,2147767616,2147575104,2147789942,2147310857,2147480420,2147719853,2148243840,2279,7,13,34920
1349712146,5805,288.9400024414062500,18.3896999359130860,36.5931015014648440,231.1508941650390600,157.0928955078125000,18.3878002166748050,31.5221195220947270,50,104,67,81,59,4031,2147490349,2147768210,2147576566,2147788827,2147308242,2147482752,2147717156,2148243419,2213,7,13,17183
1349712282,5804,277.1900024414062500,18.4780006408691400,36.5966987609863300,228.8451995849609400,153.9237976074218800,18.4843807220459000,31.5928802490234380,49,104,65,81,61,4038,2147490331,2147766308,2147582756,2147790235,2147316928,2147485284,2147720612,2148238198,2899,7,13,49673
1349712397,5802,265.8900146484375000,18.5720996856689450,36.6017990112304700,229.7252960205078000,150.9947052001953000,18.5736598968505860,31.5101604461669920,50,104,65,82,60,4039,2147487597,2147771456,2147591314,2147787456,2147307812,2147486198,2147727259,2148241910,3225,6,12,4536
1349712514,5801,254.3800048828125000,18.6548995971679700,36.5996017456054700,230.4743957519531200,148.3679962158203000,18.6537494659423830,31.4381294250488280,50,103,66,84,60,4044,2147490688,2147775277,2147602102,2147791149,2147310299,2147488146,2147734838,2148242386,3319,7,12,25589
1349712629,5801,243.1799926757812500,18.7192001342773440,36.5957984924316400,231.2500000000000000,146.2928924560547000,18.7170200347900400,31.3727092742919920,49,104,66,83,59,4050,2147495588,2147783981,2147624969,2147790326,2147306578,2147496155,2147747218,2148243776,2834,7,12,7381
1349712744,5804,232.2100067138672000,18.8651008605957030,36.5946006774902340,232.2935943603515600,141.4617004394531200,18.8643703460693360,31.2574596405029300,50,105,65,83,59,4053,2147494564,2147802560,2147681508,2147790756,2147308187,2147507346,2147778102,2148240713,2796,7,12,54369
1349712861,5803,221.5099945068359400,19.0312995910644530,36.6025009155273440,232.9822998046875000,135.9510955810547000,19.0325107574462900,31.1509304046630860,50,105,64,82,59,4059,2147498651,2147838372,2147778898,2147790665,2147314422,2147526390,2147832466,2148249152,2437,7,12,46254
1349712988,5805,210.3500061035156200,19.1268005371093750,36.5983009338378900,236.8672027587890600,132.9190063476562500,19.1250495910644530,30.9256191253662100,50,103,64,83,59,4067,2147505920,2147886290,2147908544,2147789202,2147310710,2147564973,2147908269,2148252388,2364,7,12,27300
1349713115,5801,199.9700012207031200,19.2495994567871100,36.5966987609863300,239.9356994628906200,129.0574035644531200,19.2429409027099600,30.7311305999755860,50,105,66,82,60,4067,2147504896,2147878244,2147867611,2147789467,2147309549,2147559021,2147887561,2148248091,3058,7,12,44012
1349713191,5802,194.5399932861328000,19.2728004455566400,36.5884017944335940,241.8403015136718800,128.1885070800781200,19.2694797515869140,30.6317100524902340,50,105,65,83,59,4070,2147513645,2147963318,2148097344,2147790052,2147318226,2147607625,2148011254,2148254235,2579,6,13,53940
1349713246,5799,191.0700073242187500,19.2929000854492200,36.5861015319824200,243.2241058349609400,127.5895996093750000,19.2877693176269530,30.5605106353759770,50,104,65,83,59,4076,2147520896,2147987008,2148139309,2147789083,2147324196,2147623552,2148037138,2148256210,2435,7,12,58109
1349713313,5800,186.9700012207031200,19.2905998229980470,36.5779991149902340,244.4689025878906200,127.3619003295898400,19.2947196960449220,30.5006904602050780,50,106,66,82,59,4081,2147524425,2148019209,2148211090,2147785097,2147318582,2147646107,2148078893,2148262162,2661,7,12,48645
1349713380,5805,182.9700012207031200,19.3220005035400400,36.5766983032226560,245.3885040283203000,126.4860992431640600,19.3214702606201170,30.4477500915527340,51,106,66,83,61,4080,2147527917,2148024246,2148209142,2147790601,2147321993,2147643894,2148082395,2148261513,2631,7,12,2174
1349713447,5803,178.9199981689453000,19.3257007598876950,36.5714988708496100,246.4342956542968800,126.3952026367187500,19.3242397308349600,30.3994102478027340,52,109,66,84,58,4079,2147533787,2148052434,2148260333,2147790162,2147323657,2147667108,2148108562,2148264356,3137,7,12,25648
1349713525,5802,174.5200042724609400,19.3768005371093750,36.5782012939453100,246.5789031982422000,124.8678970336914000,19.3708896636962900,30.3728199005126950,51,109,65,83,59,4085,2147555273,2148151826,2148492836,2147785225,2147338267,2147727222,2148240621,2148270957,3354,7,13,58170
1349713604,5805,170.4499969482422000,19.3927001953125000,36.5786018371582000,246.9264068603515600,124.2427978515625000,19.3899898529052730,30.3492794036865230,52,110,66,84,58,4092,2147563026,2148189220,2148563401,2147790893,2147332150,2147751533,2148280978,2148275465,319,7,12,56088
1349713683,5802,166.0299987792968800,19.4025001525878900,36.5797996520996100,247.2635040283203000,123.9095001220703100,19.4001693725585940,30.3299598693847660,53,109,66,83,59,4093,2147554907,2148102336,2148328347,2147788169,2147334509,2147696749,2148147017,2148264676,249,7,12,18041
1349713750,5806,161.9400024414062500,19.4370994567871100,36.5834999084472660,247.2642974853515600,122.5364990234375000,19.4421195983886720,30.3118705749511720,53,112,65,84,60,4103,2147571218,2148156946,2148444918,2147790253,2147343104,2147737709,2148213028,2148269568,195,7,12,17972
1349713807,5803,158.3899993896484400,19.4750003814697270,36.5881996154785160,247.2373046875000000,121.6400985717773400,19.4694995880126950,30.3015403747558600,53,111,67,84,59,4109,2147595501,2148271030,2148681947,2147790052,2147353517,2147794157,2148338121,2148279296,157,7,12,55942
1349713874,5804,154.0000000000000000,19.5046997070312500,36.5886993408203100,247.0830993652343800,120.6437988281250000,19.4999504089355470,30.2955207824707030,56,112,65,85,59,4102,2147607890,2148296329,2148700571,2147790116,2147355053,2147807442,2148342509,2148277339,209,7,12,13082
1349713941,5804,149.6600036621093800,19.5564994812011720,36.5955009460449200,247.1652069091797000,118.9969024658203100,19.5502796173095700,30.2705097198486330,57,116,66,83,59,4100,2147625216,2148330194,2148763949,2147791268,2147367387,2147827648,2148378477,2148281472,600,7,12,24675
1349713996,5803,146.1999969482422000,19.5837993621826170,36.5985984802246100,247.0522003173828000,118.0007019042968800,19.5807209014892580,30.2623805999755860,57,115,65,84,60,4102,2147655972,2148444059,2148983378,2147791506,2147381156,2147889270,2148492854,2148288557,708,7,12,40367
1349714063,5803,142.3300018310547000,19.6298007965087900,36.6046981811523440,246.6250000000000000,116.5979995727539000,19.6236000061035160,30.2634105682373050,59,114,65,86,59,4095,2147691053,2148551040,2149177609,2147794633,2147391030,2147946011,2148600000,2148297481,643,7,12,14688
1349714141,5802,138.8300018310547000,19.6546001434326170,36.6060981750488300,246.5252075195312500,115.7876968383789000,19.6483707427978500,30.2573890686035160,60,115,65,86,58,4099,2147714432,2148596370,2149254290,2147791716,2147401389,2147978148,2148630884,2148297700,349,7,13,1616
1349714444,5803,135.2899932861328000,19.7175998687744140,36.6125984191894500,246.5133972167968800,113.6660995483398400,19.7132396697998050,30.2303504943847660,63,115,65,84,59,4150,2147863652,2149063323,2150140580,2147797385,2147462345,2148232996,2149094144,2148328411,2651,6,12,22683
1349714583,5802,130.9600067138672000,19.8421001434326170,36.6246986389160160,246.1735992431640600,109.8199005126953100,19.8308696746826170,30.1957492828369140,63,119,66,86,60,4133,2148004333,2149417837,2150729243,2147803830,2147518390,2148413421,2149390409,2148350701,2831,7,12,37236
1349714698,5800,126.8499984741211000,19.9493007659912100,36.6366004943847660,245.3802947998047000,106.3119964599609400,19.9381904602050780,30.1858596801757800,66,117,67,85,59,4124,2147962742,2149153883,2150073773,2147802057,2147502006,2148269412,2149045037,2148328155,2527,7,12,9470
1349714801,5803,122.1500015258789000,20.0312004089355470,36.6403999328613300,244.4132995605468800,103.0488967895507800,20.0380592346191400,30.1870994567871100,68,118,67,84,60,4119,2148680237,2151198281,2153917961,2147837915,2147806061,2149364672,2151000566,2148466971,2479,7,12,41302
1349714868,5804,118.5699996948242200,20.0825004577636720,36.6363983154296900,247.2917022705078000,101.5896987915039000,20.0827293395996100,30.0394306182861330,73,121,66,84,61,4108,2148606098,2150785142,2152929682,2147834340,2147772022,2149145069,2150553581,2148436425,2186,7,12,28143
1349714947,5807,114.7600021362304700,20.2052001953125000,36.6390991210937500,249.3253021240234400,98.6325836181640600,20.1732692718505860,29.9114208221435550,77,120,68,86,60,4098,2148434477,2150063323,2151387117,2147824438,2147681536,2148672429,2149618395,2148377316,2717,7,12,42180
1349715038,5802,110.9400024414062500,20.2810993194580080,36.6366004943847660,253.2772064208984400,95.4409866333007800,20.2710304260253900,29.6983299255371100,81,119,66,84,59,4096,2149000009,2151337142,2153527707,2147852141,2147887643,2149247689,2150591396,2148450185,3324,7,13,54344
1349715143,5804,107.1399993896484400,20.4682998657226560,36.6413002014160160,255.6074066162109400,89.2712631225586000,20.4601097106933600,29.5199508666992200,87,120,66,86,58,4100,2149865645,2153082733,2156210770,2147898633,2148178733,2149924160,2151628708,2148541714,3027,7,12,14061
1349715306,5805,103.3600006103515600,20.7210998535156250,36.6556015014648440,256.8988037109375000,81.1816711425781200,20.7082290649414060,29.3625297546386720,102,126,68,85,58,4128,2150648384,2154474514,2158086061,2147927058,2148415579,2150350134,2152204653,2148597906,241,7,13,8014
1349715468,5802,98.8300018310546900,20.8761997222900400,36.6585006713867200,257.2369995117187500,76.1682968139648400,20.8621196746826170,29.2847900390625000,107,127,67,85,58,4112,2152405266,2157422272,2161737664,2148003803,2148946093,2151214354,2153323008,2148720018,3489,7,12,64404
1349715523,5802,96.5299987792968800,20.9570999145507800,36.6562004089355500,258.2850952148437500,73.4364929199218800,20.9460105895996100,29.2063808441162100,107,125,65,85,59,4104,2152954121,2158148434,2162294674,2148021595,2149094400,2151355337,2153416905,2148737618,3335,7,12,54504
1349715578,5804,94.2099990844726600,21.0270996093750000,36.6445999145507800,260.2785034179687500,70.8674468994140600,21.0249404907226560,29.0907802581787100,104,127,66,86,58,4101,2154210084,2160229878,2164838198,2148079414,2149479808,2152025901,2154319890,2148831030,3183,7,12,47024
1349715633,5805,92.0199966430664000,21.1028003692626950,36.6477012634277340,262.1523132324219000,68.6374206542968800,21.0934696197509770,28.9854698181152340,91,123,68,86,60,4106,2156648265,2164569325,2170700589,2148207085,2150244132,2153551762,2156545380,2149045549,2930,6,12,9357
1349715688,5804,89.8700027465820300,21.2159004211425780,36.6621017456054700,263.4414978027344000,65.0411529541015600,21.2040290832519530,28.8875007629394530,90,122,66,86,59,4123,2159131081,2168846363,2176346029,2148346660,2151080064,2155135241,2158778624,2149257654,2828,7,12,16980
1349715767,5802,86.4100036621093800,21.3274993896484380,36.6591987609863300,261.9638061523437500,60.6800193786621100,21.3381805419921880,28.8935203552246100,86,124,67,87,59,4119,2159413769,2168391314,2174416566,2148353499,2151245211,2155006089,2158122240,2149225947,3362,7,12,27473
1349715822,5805,83.5500030517578100,21.5807991027832030,36.6655998229980500,264.9917907714844000,52.8426895141601560,21.5794601440429700,28.6723594665527340,79,124,67,87,58,4107,2157317092,2163654281,2167033764,2148219483,2150693778,2153517897,2155503296,2148996626,445,7,12,57344
1349715877,5803,80.9499969482421900,21.6536998748779300,36.6633987426757800,267.4584045410156000,51.1711692810058600,21.6309509277343750,28.5524597167968750,75,124,68,86,57,4109,2159036397,2165808621,2169027840,2148306742,2151362276,2154473188,2156435867,2149099574,3555,8,12,62255
1349715932,5805,78.5699996948242200,21.9901008605957030,36.6729011535644500,266.6516113281250000,40.7991294860839840,21.9507694244384770,28.4561805725097660,75,126,67,87,58,4110,2163600722,2172694747,2177231323,2148578477,2153135158,2157400502,2159957229,2149459328,448,7,12,41320
1349715987,5803,76.6600036621093800,22.0412998199462900,36.6712989807128900,267.7095947265625000,38.3871612548828100,22.0252094268798830,28.3842792510986330,73,124,66,87,57,4115,2168496630,2179911990,2185721371,2148903076,2155037952,2160523300,2163720054,2149855021,304,7,12,6776
1349716042,5804,74.9899978637695300,22.0800991058349600,36.6711006164550800,268.1650085449219000,37.4485282897949200,22.0541896820068360,28.3546390533447270,72,125,67,86,59,4120,2169779840,2181227840,2186727478,2148995657,2155636946,2161234148,2164242605,2149912557,451,8,12,7867
1349716111,5805,73.4199981689453100,22.1261005401611330,36.6605987548828100,269.1810913085937500,35.2927513122558600,22.1207599639892580,28.2877407073974600,72,126,67,86,55,4112,2172560054,2184837074,2190461851,2149166034,2156957650,2163137261,2166185600,2150119186,269,7,12,1418
1349716250,5801,71.4000015258789000,22.3691997528076170,36.6531982421875000,270.6459045410156000,29.6214294433593750,22.2959995269775400,28.1603908538818360,70,125,67,88,58,4116,2172532333,2182777536,2186058660,2149092434,2157213613,2162727680,2164830802,2149993280,3444,7,12,8349
1349716365,5805,69.5299987792968800,22.4004993438720700,36.6587982177734400,268.9910888671875000,26.6517295837402340,22.3878307342529300,28.1889591217041000,72,125,68,88,55,4117,2165930532,2172556077,2173964626,2148728274,2154779465,2158532690,2159694893,2149483044,275,7,12,32563
1349716468,5803,66.8199996948242200,22.6327991485595700,36.6264991760253900,265.0040893554687500,19.3432102203369140,22.6140098571777340,28.2577590942382800,74,130,66,89,55,4106,2194224118,2212041645,2219192877,2150852160,2166404205,2176315940,2180031350,2151691721,729,7,12,56781
1349716523,5800,65.1399993896484400,22.7964000701904300,36.6204986572265600,264.7495117187500000,14.3519697189331050,22.7686405181884770,28.2066192626953120,72,127,67,90,55,4092,2199385014,2217529270,2223871195,2151235392,2168912173,2179466176,2182944649,2152039314,418,7,12,36858
1349716614,5804,63.4799995422363300,23.0175991058349600,36.6216011047363300,266.0145874023437500,10.0750303268432620,22.9012508392334000,28.1037006378173830,67,125,67,87,56,4082,2176491117,2183994916,2184070948,2149350720,2159737234,2164609938,2165223670,2150120621,308,7,12,23808
1349716764,5805,60.7200012207031250,23.1198997497558600,36.6055984497070300,265.7905883789062500,3.0476961135864260,23.1193599700927730,28.0267200469970700,66,129,66,88,56,4105,2184280612,2192187163,2191701897,2149962432,2163337737,2168745115,2168793170,2150583149,427,8,12,47424
1349716819,5802,58.5800018310546900,23.2768001556396500,36.5853004455566400,264.5351867675781000,-1.5514340400695800,23.2622509002685550,28.0205307006835940,69,132,68,89,56,4093,2209016100,2223780818,2226364918,2152232329,2174505782,2184045010,2184908726,2152500096,802,7,12,3337
1349716874,5803,57.1800003051757800,23.4242992401123050,36.5744018554687500,265.8129882812500000,-6.1028661727905270,23.4037895202636720,27.9140205383300780,69,134,67,89,54,4070,2222021046,2240067401,2244379309,2153535296,2181415981,2193697865,2195441188,2153683958,984,7,12,36841
1349717144,5803,55.1599998474121100,23.7964000701904300,36.5365982055664060,266.4125061035156000,-18.3055496215820300,23.7838592529296880,27.7418403625488280,67,133,68,89,54,4034,2228859739,2244897097,2246732580,2154190089,2187391698,2199350601,2199084278,2154158107,1086,8,12,19257
1349717298,5803,53.9199981689453100,23.9855995178222660,36.5334014892578100,266.2463073730469000,-23.8324909210205080,23.9563198089599600,27.6813697814941400,65,132,68,89,55,4013,2232900480,2247599542,2247621238,2154271003,2190148946,2201945572,2200853302,2154347446,1625,8,12,56038
1349717458,5803,51.7400016784668000,24.4002990722656250,36.5127983093261700,265.4220886230469000,-37.2526206970214840,24.3758697509765620,27.5515003204345700,62,137,67,89,57,3994,2246510518,2260382144,2258606052,2155740169,2199840027,2211701165,2208294610,2155317805,2378,7,12,56443
1349717582,5802,49.8899993896484400,24.6933002471923830,36.5177001953125000,264.7424926757812500,-44.3475189208984400,24.5981597900390620,27.4925804138183600,62,151,67,88,54,3975,2249779181,2263340800,2261675474,2156382829,2203102509,2215062866,2211268809,2155756306,1845,8,12,43029
1349718011,5801,47.8600006103515600,25.2614994049072270,36.4640007019043000,261.2323913574219000,-64.3689270019531200,25.2273693084716800,27.3902797698974600,59,129,67,89,54,3937,2224788096,2230579218,2225665563,2154248301,2194809581,2200841334,2194044736,2153747117,1737,8,12,26815
1349718356,5804,45.6699981689453100,26.3026008605957030,36.4059982299804700,253.4947967529297000,-98.9195632934570300,26.3202705383300780,27.2868309020996100,60,128,67,89,51,3883,2292151094,2306482057,2302926482,2162418889,2243297444,2256057609,2242959963,2159761947,2522,6,12,31360
1349718461,5804,43.8600006103515600,26.4379997253417970,36.4196014404296900,250.2561950683593800,-100.9158020019531200,26.3837108612060550,27.3962192535400400,59,131,67,90,55,3881,2265296137,2273941952,2268662848,2159767149,2225729444,2234358473,2222519168,2157426642,2499,7,12,7874
1349718900,5806,41.9399986267089840,26.8647003173828120,36.3577995300293000,242.5868988037109400,-116.2124023437500000,26.8709106445312500,27.5348701477050780,59,133,66,89,55,3843,2310646272,2325478253,2323157787,2167047881,2262625170,2275073444,2258545581,2162219611,1805,7,11,17944
1349718957,5802,40.8699989318847660,27.0543003082275400,36.3396987915039060,240.7070007324218800,-121.4611968994140600,27.0385608673095700,27.5521202087402340,56,125,66,88,50,3834,2258789092,2265204937,2260050889,2160250285,2231528722,2237596781,2223258624,2157738368,1570,7,12,36073
1349719302,5805,38.6699981689453100,27.1352996826171880,36.2667999267578100,238.1775970458984400,-124.6445999145507800,27.1403503417968750,27.6234397888183600,55,122,64,87,55,3771,2301809161,2314565376,2312575460,2169199872,2279330706,2285884964,2260491785,2162794898,416,7,12,5812
1349719359,5803,36.5900001525878900,27.1793994903564450,36.2653007507324200,237.9566040039062500,-126.3331985473632800,27.1943798065185550,27.6125297546386720,55,123,65,88,55,3752,2325198381,2340604745,2340486637,2174722203,2304705133,2311170870,2280533010,2165854857,610,8,11,35363